sat.trackr.live / text

‹ back to catalog

STARLINK-2700

NORAD 48431 · 2021-040D

PAYLOAD ACTIVE UNKNOWN

§ Identity

Operator
Country
US
Launch date
2021-05-09
Launch site
AFETR
Launch vehicle
Mass (kg)
RCS (m²)

Purposes: comms

External: N2YO · Heavens-Above · Gunter

§ Orbital elements

Epoch: 2026-09-19T16:16:59.109888Z

Period
94.01 min
Inclination
53.1618°
Eccentricity
0.0001209
Mean motion
15.31705371 rev/d
Perigee alt
469.9 km
Apogee alt
471.6 km
Semi-major
6,848.9 km
B*
3.9864e-5
RAAN
330.0142°
Arg perigee
88.3116°
Mean anomaly
271.8024°
Rev number
29,675

§ Raw data

STARLINK-27001 48431U 21040D   26262.67846192  .00000872  00000+0  39864-4 0  99982 48431  53.1618 330.0142 0001209  88.3116 271.8024 15.31705371296754

JSON: /api/v1/satellites/48431 · /tle

For live sub-satellite position, see the globe view (requires WebGL).

§ Visibility from observer

Set your observer location to see the next 7 days of passes ≥ 10°. The values pass through the URL so the page stays shareable.

No JS? Fill the form by hand. The geolocation button needs JavaScript.